Theta_e
283 283 283 283 285 285 285 285 285 286 287 287 288 288 288 289 290 291 291 291 292 292 293 293 295 297 298 298 299 300 299 300 298 297 297 296 298 299 299 300 300 312 311
283 283 282 283 284 284 284 284 286 286 287 287 288 288 288 288 289 289 289 290 290 291 292 294 294 296 298 299 299 299 299 301 300 298 289 288 288 289 295 293 291 292 294
281 281 281 281 282 282 283 284 285 286 286 287 287 286 286 287 288 288 288 289 289 290 291 293 293 295 297 298 299 299 300 302 302 301 291 287 287 289 286 286 286 287 289
280 280 279 281 282 282 283 284 284 285 285 285 285 286 286 287 287 288 288 288 288 289 291 292 292 293 294 298 299 299 301 301 301 297 288 286 286 285 287 286 285 286 286
275 273 276 279 282 282 282 283 284 284 284 285 285 286 286 286 287 287 287 287 286 286 287 288 289 287 288 292 294 297 299 299 299 297 288 287 286 286 287 286 285 286 285
270 272 272 280 280 281 282 282 283 283 283 284 284 285 285 286 288 288 287 285 285 285 284 285 287 285 288 291 291 293 294 295 296 295 289 289 287 287 288 287 286 285 285
268 270 274 280 274 277 281 282 282 282 283 283 282 283 284 285 288 287 286 285 284 284 284 284 284 285 284 286 287 287 286 290 292 294 294 292 289 290 290 287 287 286 285
267 269 277 280 280 279 281 281 281 282 281 280 280 280 282 285 287 287 285 283 283 283 284 283 283 284 285 284 283 282 281 284 286 288 291 293 295 293 292 289 288 285 285
268 269 273 279 280 280 280 281 281 281 278 278 280 279 279 282 286 286 283 282 282 282 283 284 284 283 285 285 281 280 279 279 283 286 288 291 293 291 289 289 286 286 282
271 272 270 276 280 280 280 280 281 280 278 280 280 278 278 279 285 285 283 282 280 280 280 283 284 284 285 283 280 279 277 277 277 277 278 278 279 282 284 287 289 286 282
277 275 274 273 278 280 280 280 279 278 276 277 277 276 277 278 281 284 284 281 280 279 278 279 282 284 284 285 283 279 278 277 277 276 276 276 276 275 276 277 279 284 279
277 278 276 275 278 278 273 273 274 277 275 272 275 276 278 278 281 282 283 283 281 278 278 279 280 282 283 282 281 282 281 278 276 275 274 274 274 273 274 275 276 277 278
274 273 273 274 277 277 274 275 274 274 274 274 275 273 275 278 279 280 281 281 280 278 279 280 280 279 278 278 280 279 277 275 275 273 273 273 274 276 277 277 277 277 275
272 272 272 272 273 273 276 276 274 272 272 274 275 273 273 275 276 277 276 275 277 276 276 276 277 277 277 275 273 274 274 274 273 272 272 273 274 275 275 277 276 275 274
272 272 273 273 273 273 275 274 275 275 277 278 278 274 271 271 277 280 278 275 274 277 270 272 271 271 270 270 270 270 271 272 271 272 271 271 271 272 272 274 274 273 271
273 273 273 273 272 274 274 276 281 280 281 281 282 278 276 280 280 280 280 280 279 277 269 268 268 268 267 267 266 267 268 268 268 269 269 269 269 270 269 270 270 269 268
274 274 274 274 274 274 274 274 273 276 279 279 280 280 280 279 279 278 279 279 278 274 268 266 266 267 266 266 265 265 265 265 265 266 266 266 267 267 267 267 266 266 264
273 273 275 274 275 274 274 272 270 268 266 266 273 274 277 277 278 278 278 273 266 267 262 261 260 262 263 264 264 263 263 264 264 264 264 264 263 264 264 264 264 263 262
274 274 274 275 275 274 273 271 270 266 265 262 262 268 266 274 275 277 276 264 262 260 258 262 259 261 262 261 260 260 260 261 260 262 261 262 260 263 262 262 262 260 260
273 274 275 275 273 273 273 271 268 266 263 262 262 262 260 262 261 260 260 260 260 258 257 259 256 258 258 257 257 257 261 260 260 261 260 261 260 261 260 260 259 259 259
274 274 275 275 274 274 273 272 271 268 267 265 264 263 271 262 260 259 258 258 259 257 257 256 255 255 255 256 258 257 259 259 258 258 259 258 258 259 259 260 259 258 259
274 274 274 275 274 272 272 271 271 270 268 267 261 263 275 261 261 260 259 259 256 256 257 258 256 254 254 256 256 257 257 257 257 257 258 258 259 258 257 258 257 256 255
274 273 274 274 274 272 271 270 270 270 269 267 265 263 260 259 259 259 259 257 257 255 254 257 257 254 253 254 254 257 259 257 257 257 258 257 257 256 256 255 255 254 253
275 273 274 273 273 273 272 272 270 268 268 267 266 264 264 262 261 260 259 257 256 253 252 255 255 255 253 253 253 253 256 255 256 257 257 259 257 255 255 252 253 249 250
275 274 273 273 273 272 271 271 270 268 268 267 265 263 262 261 260 259 258 257 256 255 253 252 253 255 255 255 254 253 257 259 255 256 256 256 255 254 253 253 251 247 246
275 274 274 274 273 273 272 271 270 268 267 266 265 264 264 263 261 260 258 256 255 254 253 251 252 253 254 253 254 255 257 260 256 256 255 256 254 252 252 251 248 248 247
Wind_Speed
5 5 6 6 8 9 9 9 12 11 11 11 11 12 11 12 12 11 12 13 15 13 13 15 17 17 13 11 12 11 12 11 13 5 2 1 2 1 4 5 7 5 7
4 5 6 6 8 9 9 11 10 10 10 10 10 11 11 10 11 11 12 12 13 13 13 14 15 13 17 15 12 13 13 12 11 12 3 2 1 3 2 5 4 6 6
5 5 6 7 10 10 9 11 9 10 9 9 10 10 11 11 10 11 11 12 12 13 13 13 14 14 15 12 13 12 11 10 10 9 4 1 1 2 3 5 1 5 5
5 5 6 8 9 8 9 9 9 9 9 8 9 9 10 10 9 10 9 10 11 11 11 11 12 10 10 12 7 7 5 9 10 6 3 3 2 1 1 3 2 6 3
4 3 5 6 8 9 9 8 8 8 8 9 9 8 9 9 6 9 8 9 8 9 9 8 6 5 7 6 4 5 3 4 3 6 3 3 3 2 3 1 4 5 2
4 5 4 6 8 7 6 7 7 7 7 8 8 8 7 6 14 13 9 5 5 5 7 6 5 5 6 6 8 5 2 4 5 3 3 4 4 4 5 5 7 3 3
4 4 4 6 5 6 6 5 5 7 7 7 9 10 7 8 12 10 12 5 6 7 7 6 5 4 3 2 7 10 11 13 6 3 5 5 6 7 10 7 5 3 5
5 4 4 5 7 5 6 4 4 4 5 5 7 10 9 6 13 12 12 6 8 8 9 8 7 6 5 3 4 6 9 12 13 5 2 4 4 8 6 5 7 10 10
6 5 4 4 5 5 4 6 5 4 3 3 6 9 10 9 16 15 10 7 8 10 9 11 8 7 12 10 6 6 7 7 10 21 25 23 17 17 13 11 9 12 6
6 6 5 4 4 4 3 5 5 3 3 4 4 5 7 9 18 18 12 5 7 6 8 10 21 13 18 16 8 7 8 7 8 8 7 14 15 17 17 8 8 10 8
6 5 4 4 4 5 4 2 4 4 3 3 4 4 5 8 11 18 17 7 5 5 7 8 10 22 22 20 16 10 8 7 10 8 9 9 10 11 8 8 10 5 5
6 5 4 3 2 2 2 2 3 3 2 3 3 3 3 3 12 15 17 17 13 7 8 7 8 20 24 21 15 21 19 13 8 9 10 10 9 9 9 10 12 12 12
6 5 4 3 2 2 1 1 1 2 2 3 2 2 3 5 5 13 14 15 15 8 7 13 20 20 20 16 25 23 14 9 9 10 10 10 8 6 7 8 11 14 16
7 6 4 4 4 3 1 1 2 2 1 2 2 2 2 3 5 5 5 5 10 9 9 8 14 16 20 15 11 13 10 10 9 9 9 7 7 7 8 6 8 9 12
6 6 5 4 4 3 2 3 2 2 2 2 2 2 2 3 6 9 8 4 4 7 4 7 8 9 9 9 9 10 9 9 9 7 7 7 7 7 8 6 8 10 11
8 6 6 5 4 4 3 2 6 4 4 5 6 5 1 8 9 12 11 12 13 10 6 6 7 7 7 7 7 7 8 10 8 7 8 7 8 8 8 9 9 10 11
11 9 7 7 7 6 5 5 5 2 5 5 3 5 6 6 8 8 11 15 15 11 7 5 4 5 5 6 6 6 6 6 5 8 7 7 7 7 9 9 8 8 9
10 11 9 8 7 6 6 5 4 4 3 2 2 4 4 5 6 6 8 9 6 7 4 4 4 3 4 5 5 4 5 6 7 6 7 6 7 7 8 8 7 8 7
11 9 9 8 7 7 5 5 5 4 4 3 0 1 2 2 4 9 13 4 4 3 2 4 2 3 4 4 4 4 5 5 4 6 5 7 5 7 8 7 8 9 8
11 12 12 9 7 7 6 6 5 4 3 3 3 3 1 3 2 2 3 3 4 3 3 4 2 3 4 3 3 3 5 5 5 6 6 6 5 6 7 7 6 8 7
10 10 14 9 9 9 8 8 7 6 5 4 4 4 7 4 4 3 3 3 4 3 3 3 3 3 3 3 4 3 5 5 4 5 5 5 4 7 5 7 7 7 7
10 11 11 11 9 9 8 6 7 7 7 6 3 3 10 2 4 4 3 3 3 3 3 4 4 3 3 3 4 4 4 5 4 5 5 5 6 6 5 6 6 5 5
12 12 12 10 10 10 8 6 7 7 7 7 6 5 3 3 4 4 4 4 4 3 3 4 5 3 3 3 3 4 5 4 4 5 7 5 5 5 5 5 5 5 4
12 13 13 11 10 10 10 10 8 7 7 7 7 6 5 5 5 5 5 4 4 3 3 4 4 6 4 3 3 3 3 3 4 5 7 7 6 6 5 4 4 4 4
12 12 13 12 12 11 10 9 8 7 7 7 6 5 5 5 5 4 5 4 4 4 4 4 4 6 7 8 6 5 5 8 5 6 5 6 8 8 5 5 5 3 4
12 13 12 11 10 10 10 10 9 8 7 6 5 5 6 6 5 6 5 5 4 4 5 3 4 7 8 5 7 7 7 8 7 7 6 6 7 5 5 5 6 4 5
Wind_Direction
307 326 300 291 295 299 295 297 293 283 277 276 276 282 276 276 274 271 265 265 259 260 265 263 263 258 255 243 249 239 244 241 252 262 256 264 254 81 52 30 7 241 206
333 311 305 308 307 309 305 302 295 295 290 290 285 279 280 279 281 279 278 275 272 268 269 266 274 274 252 240 238 239 238 239 246 248 188 243 24 327 110 99 36 24 3
325 316 316 312 312 312 308 304 308 305 304 302 299 296 296 294 284 287 278 276 272 270 269 265 269 266 253 239 236 234 238 238 238 235 195 150 179 221 66 63 312 84 23
306 305 301 308 314 308 307 311 313 311 312 311 304 298 297 297 297 286 285 284 280 272 272 270 272 274 302 245 225 221 241 244 233 213 154 153 154 193 164 179 91 72 63
274 288 284 298 313 320 322 318 317 317 319 309 309 309 309 309 302 306 299 292 288 285 282 282 281 294 303 305 267 253 256 262 278 201 151 138 157 153 165 350 84 112 71
263 271 280 304 319 324 318 319 322 318 322 321 327 322 321 316 316 336 333 306 303 306 315 309 311 313 314 329 42 46 325 261 266 156 137 167 176 149 136 161 134 144 114
250 270 278 313 316 305 331 317 325 328 332 342 344 338 334 322 350 5 6 346 359 355 344 336 340 335 319 6 57 59 46 42 32 309 162 179 173 182 155 135 151 128 98
249 261 283 313 319 324 341 335 337 328 338 346 348 347 335 343 17 29 17 5 20 8 8 355 351 349 10 44 69 62 47 42 28 17 346 168 139 147 147 114 122 111 92
237 241 239 281 306 322 337 348 352 334 335 337 357 349 351 354 27 36 29 16 17 17 6 19 5 10 27 44 53 61 59 40 32 52 63 65 88 105 118 113 132 130 88
222 226 213 237 276 294 309 329 343 339 322 339 343 345 342 353 25 38 33 16 29 15 10 22 36 41 52 53 51 48 58 37 36 35 40 50 52 60 47 66 144 132 119
198 191 214 211 244 274 302 309 320 324 340 329 337 329 353 359 13 34 43 31 23 24 26 21 30 41 42 51 61 59 60 45 48 52 54 55 51 54 50 54 52 99 123
171 192 204 201 228 269 250 290 317 333 353 327 338 324 345 355 28 31 40 46 43 43 37 34 41 47 54 53 50 60 62 62 59 60 59 53 54 51 46 60 68 70 62
170 194 187 205 197 239 227 19 335 328 346 320 332 341 353 11 18 30 37 46 49 53 48 58 57 56 53 42 53 52 49 54 61 62 60 55 45 50 79 81 83 84 68
184 191 186 183 178 218 220 82 85 338 345 22 356 9 358 5 20 20 23 20 33 42 37 42 56 57 57 52 44 38 38 42 52 58 57 47 47 56 54 47 77 83 73
182 185 183 174 182 164 162 155 135 264 161 107 53 50 62 17 26 33 35 24 24 41 34 40 38 33 37 34 36 35 33 38 48 45 57 59 56 56 48 46 62 73 85
182 185 179 170 178 162 160 101 117 120 109 98 96 110 19 63 46 45 53 58 61 59 44 51 44 37 42 38 39 36 37 39 35 42 49 51 55 57 64 58 63 72 81
184 179 172 170 182 179 161 156 151 61 70 70 93 90 74 71 62 58 63 64 68 70 71 50 54 49 49 47 48 49 47 26 25 47 51 46 55 61 66 66 67 75 68
182 178 174 173 184 185 172 168 160 169 190 249 43 65 59 65 61 50 79 76 54 45 57 78 72 47 47 58 56 51 49 49 49 49 53 51 52 63 66 62 59 75 75
181 180 174 172 174 181 166 161 160 166 178 179 338 236 1 77 84 69 74 100 111 87 73 79 65 73 71 68 63 64 64 60 50 61 52 62 51 79 74 70 76 71 81
187 178 175 171 163 168 172 167 160 162 170 179 188 216 178 47 43 29 64 96 99 104 109 103 90 86 88 88 77 68 79 66 61 69 67 73 60 71 80 80 72 90 81
186 175 174 166 173 173 178 183 178 166 172 194 206 192 181 148 163 150 137 121 133 132 134 122 105 92 92 93 90 82 87 91 86 87 84 78 78 90 86 88 94 97 105
182 178 177 178 168 170 176 177 179 177 172 177 191 202 178 129 142 146 136 132 137 136 141 129 122 123 131 123 125 114 104 106 101 100 95 88 90 88 87 91 91 86 86
181 175 176 177 173 164 160 164 180 183 182 175 165 172 163 170 157 155 153 153 140 129 119 121 125 109 79 79 111 138 137 149 150 129 115 106 100 95 92 98 105 95 88
183 176 175 172 169 171 174 179 179 183 179 175 171 172 174 170 166 162 154 151 140 135 120 126 136 144 131 111 88 99 120 122 118 128 124 124 117 111 104 100 107 103 108
180 176 175 172 171 174 172 173 174 177 180 177 174 165 162 155 154 153 149 146 143 139 153 146 144 154 155 149 140 132 139 118 121 126 116 117 124 127 123 116 125 106 103
180 177 174 170 170 173 174 173 175 173 178 178 171 169 165 162 160 156 154 154 156 157 159 162 164 162 161 155 152 147 137 135 137 133 127 128 128 127 125 128 132 128 129